Flag for Japan Weather past 2 weeks in Okayama, Japan

Now
45 °F

Sprinkles. Fog.


Feels Like: 40 °F
Forecast: 38 / 54 °F
Wind: 8 mph from East

Location: Okayama Airport

Current Time: Jan 26, 2015 at 4:34:21 PM

Latest Report: Jan 26, 2015 at 4:00 PM


Visibility: 1 mi

Pressure: 29.95 "Hg

Humidity: 93%

Dew point: 43 °F

Location of OkayamaLocation

Historic Weather in Okayama — Graph

°F

Okayama temperature yesterday

Maximum temperature yesterday: 50 °F (at 1:00 PM)
Minimum temperature yesterday: 32 °F (at 7:00 AM)
Average temperature yesterday: 43 °F

Past Weeks' High & Low Weather Summary

 TemperatureHumidityPressure
High50 °F (Jan 25, 1:00 PM)100% (Jan 15, 8:00 AM)30.51 "Hg (Jan 15, 8:00 AM)
Low30 °F (Jan 18, 7:00 AM)43% (Jan 13, 3:00 PM)29.68 "Hg (Jan 22, 3:00 PM)
Average41 °F69%30.13 "Hg
* Reported Jan 11 3:00 PM — Jan 26 3:00 PM, Okayama, Weather by CustomWeather, © 2014

Note: Actual official high and low records may vary slightly from our data, if they occured in-between our weather recording intervals... More about our weather records

Advertising

Okayama weather history for previous 24 hours

 ConditionsComfort  
Time TempWeatherWind HumidityBarometerVisibility
3:00 PM
Jan 26
43 °FSprinkles. Fog.9 mph100%29.98 "Hg1 mi
2:00 PM43 °FRain showers. Fog.8 mph93%30.01 "Hg1 mi
1:00 PM43 °FSprinkles. Fog.6 mph93%30.04 "Hg1 mi
12:00 PM43 °FSprinkles. Broken clouds.9 mph93%30.07 "Hg4 mi
11:00 AM43 °FSprinkles. Fog.7 mph87%30.12 "Hg3 mi
10:47 AM43 °FRain showers. Fog.5 mph87%30.12 "Hg3 mi
10:00 AM43 °FLight rain. Broken clouds.6 mph81%30.15 "Hg6 mi
9:00 AM41 °FLight rain. Broken clouds.3 mph87%30.18 "HgN/A
8:00 AM39 °FLight rain. Partly sunny.3 mph87%30.18 "HgN/A
7:00 AM39 °FPartly cloudy.6 mph81%30.18 "Hg6 mi
9:00 PM
Jan 25
41 °FPartly cloudy.1 mph66%30.30 "HgN/A
8:00 PM43 °FPartly cloudy.2 mph57%30.30 "HgN/A
7:00 PM41 °FPassing clouds.3 mph61%30.30 "HgN/A
6:00 PM43 °FPassing clouds.5 mph57%30.30 "HgN/A
5:00 PM45 °FPartly sunny.6 mph57%30.27 "HgN/A
4:00 PM48 °FPartly sunny.6 mph50%30.27 "HgN/A
Weather by CustomWeather, © 2014

See weather overviewHow to use our weather pages